This demonstration page uses our WeatherBlox Daily Observations layout. Learn more.

Left ArrowRight Arrow

39.29038, -76.61219

Hourly Observations for May 30, 2017

Temp ( °F °C ) Dew Point ( °F °C ) Humidity (%) Winds ( mph kmh ) Pressure ( in mb ) Visibility ( mi km ) Precip ( " mm )
12:54 am 00:54 undefined 63 17.2 60 15.6 90 90 undefined N/A 30.06 1018 N/A N/A
1:54 am 01:54 undefined 62 16.7 60 15.6 93 93 undefined N/A 30.06 1018 N/A N/A
2:54 am 02:54 undefined 61 16.1 59 15 93 93 undefined N/A 30.07 1018 N/A N/A
3:54 am 03:54 undefined 61 16.1 58 14.4 90 90 undefined N/A 30.08 1019 N/A N/A
4:54 am 04:54 undefined 61 16.1 58 14.4 90 90 undefined N/A 30.07 1018 N/A N/A
5:54 am 05:54 undefined 61 16.1 58 14.4 90 90 undefined N/A 30.08 1019 N/A N/A
6:54 am 06:54 undefined 61 16.1 59 15 93 93 undefined N/A 30.09 1019 N/A N/A
7:54 am 07:54 undefined 61 16.1 58 14.4 90 90 undefined N/A 30.10 1019 N/A N/A
8:54 am 08:54 undefined 62 16.7 59 15 90 90 undefined N/A 30.12 1020 N/A N/A
9:54 am 09:54 undefined 62 16.7 59 15 90 90 undefined N/A 30.11 1020 N/A N/A
10:54 am 10:54 undefined 62 16.7 59 15 90 90 undefined N/A 30.11 1020 N/A N/A
11:54 am 11:54 undefined 62 16.7 60 15.6 93 93 undefined N/A 30.11 1020 N/A N/A
12:54 pm 12:54 undefined 64 17.8 61 16.1 90 90 undefined N/A 30.11 1020 N/A N/A
1:54 pm 13:54 undefined 64 17.8 61 16.1 90 90 undefined N/A 30.08 1019 N/A N/A
2:54 pm 14:54 undefined 65 18.3 62 16.7 90 90 undefined N/A 30.06 1018 N/A N/A
3:54 pm 15:54 undefined 66 18.9 63 17.2 90 90 undefined N/A 30.05 1018 N/A N/A
4:54 pm 16:54 undefined 66 18.9 64 17.8 93 93 undefined N/A 30.05 1018 N/A N/A
5:54 pm 17:54 undefined 65 18.3 64 17.8 97 97 undefined N/A 30.03 1017 N/A N/A
6:54 pm 18:54 undefined 66 18.9 63 17.2 90 90 undefined N/A 30.05 1018 N/A N/A
7:54 pm 19:54 undefined 66 18.9 64 17.8 93 93 undefined N/A 30.05 1018 N/A N/A
8:54 pm 20:54 undefined 66 18.9 64 17.8 93 93 undefined N/A 30.05 1018 N/A N/A
9:54 pm 21:54 undefined 66 18.9 63 17.2 90 90 undefined N/A 30.06 1018 N/A N/A
10:54 pm 22:54 undefined 65 18.3 63 17.2 93 93 undefined N/A 30.06 1018 N/A N/A
11:54 pm 23:54 undefined 65 18.3 64 17.8 97 97 undefined N/A 30.05 1018 N/A N/A

Powered by AerisWeather